THA232 WMKK-VTBS

Flight info

Callsign THA232
Flight time N/A
Altitude 38000
Route BIKDU1D BIKDU Y501 RIGTO/N0484F370 M769 DANDO/N0484F380 M769 LEBIM LEBIM1C
Aircraft B77W/H-SDE1E2E3FGHIJ2J3J4J5M1RWXY/LB1D1

Departure

Time 2026-05-07 15:50
Airport Kuala Lumpur International Airport (WMKK)

Arrival

Time N/A
Airport Suvarnabhumi Airport (VTBS)
Time Latitude Longitude Altitude Speed Heading
2026-05-07 15:27 2.74779 101.71192 81 ft 0 kts 146°
2026-05-07 15:37 2.74788 101.71186 81 ft 2 kts 146°
2026-05-07 15:37 2.74801 101.71178 81 ft 2 kts 146°
2026-05-07 15:38 2.74809 101.71172 81 ft 0 kts 146°
2026-05-07 15:38 2.74820 101.71163 81 ft 2 kts 122°
2026-05-07 15:38 2.74825 101.71149 81 ft 2 kts 92°
2026-05-07 15:38 2.74823 101.71135 81 ft 2 kts 66°
2026-05-07 15:39 2.74818 101.71126 81 ft 0 kts 46°
2026-05-07 15:39 2.74815 101.71123 81 ft 0 kts 46°
2026-05-07 15:43 2.74817 101.71125 81 ft 2 kts 44°
2026-05-07 15:43 2.74866 101.71128 81 ft 12 kts 337°
2026-05-07 15:43 2.74968 101.71064 81 ft 19 kts 326°
2026-05-07 15:44 2.75066 101.71017 81 ft 12 kts 10°
2026-05-07 15:44 2.75130 101.71078 81 ft 13 kts 54°
2026-05-07 15:44 2.75189 101.71160 81 ft 15 kts 55°
2026-05-07 15:44 2.75257 101.71259 81 ft 18 kts 55°
2026-05-07 15:45 2.75334 101.71373 81 ft 21 kts 55°
2026-05-07 15:45 2.75396 101.71465 81 ft 11 kts 57°
2026-05-07 15:45 2.75438 101.71542 81 ft 9 kts 82°
2026-05-07 15:45 2.75423 101.71577 81 ft 4 kts 128°
2026-05-07 15:46 2.75309 101.71658 81 ft 17 kts 146°
2026-05-07 15:46 2.75218 101.71720 81 ft 15 kts 144°
2026-05-07 15:46 2.75162 101.71758 81 ft 1 kts 146°
2026-05-07 15:47 2.75148 101.71767 81 ft 3 kts 146°
2026-05-07 15:47 2.75109 101.71793 81 ft 10 kts 146°
2026-05-07 15:47 2.75030 101.71846 81 ft 10 kts 146°
2026-05-07 15:47 2.74933 101.71911 81 ft 11 kts 146°
2026-05-07 15:48 2.74904 101.71931 81 ft 5 kts 146°
2026-05-07 15:48 2.74833 101.71979 81 ft 19 kts 145°
2026-05-07 15:48 2.74759 101.72063 81 ft 14 kts 73°
2026-05-07 15:48 2.74801 101.72136 81 ft 11 kts 56°
2026-05-07 15:49 2.74846 101.72191 81 ft 6 kts 11°
2026-05-07 15:49 2.74898 101.72168 81 ft 8 kts 333°
2026-05-07 15:49 2.74967 101.72122 81 ft 30 kts 326°
2026-05-07 15:49 2.75393 101.71835 81 ft 112 kts 326°
2026-05-07 15:50 2.76250 101.71257 114 ft 177 kts 326°
2026-05-07 15:50 2.77335 101.70519 591 ft 201 kts 328°
2026-05-07 15:50 2.78544 101.69750 1444 ft 214 kts 330°
2026-05-07 15:50 2.79793 101.69043 2571 ft 202 kts 334°
2026-05-07 15:51 2.81090 101.68462 3364 ft 211 kts 343°
2026-05-07 15:51 2.82539 101.68024 4044 ft 227 kts 347°
2026-05-07 15:51 2.84116 101.67617 4763 ft 242 kts 347°
2026-05-07 15:51 2.85800 101.67186 5509 ft 257 kts 347°
2026-05-07 15:52 2.87598 101.66725 6268 ft 273 kts 346°
2026-05-07 15:52 2.89439 101.66253 7148 ft 281 kts 346°
2026-05-07 15:52 2.91359 101.65759 8125 ft 286 kts 347°
2026-05-07 15:52 2.93305 101.65260 9071 ft 291 kts 347°
2026-05-07 15:53 2.95268 101.64756 10013 ft 296 kts 347°
2026-05-07 15:53 2.97290 101.64237 10712 ft 310 kts 347°
2026-05-07 15:53 2.99463 101.63681 11335 ft 327 kts 347°
2026-05-07 15:53 3.01724 101.63102 11957 ft 343 kts 347°
2026-05-07 15:54 3.04094 101.62495 12586 ft 358 kts 347°